Wind_Speed
18 20 20 21 21 20 19 18 16 16 17 16 15 13 12 11 11 11 11 10 9 9 8 7 6 6 5 4 4 5 6 6 7 7 8 9 10 11 12 13 14 15 16 16
16 18 19 20 20 21 21 19 15 13 13 13 13 12 12 11 11 11 11 10 10 9 8 7 6 6 5 4 5 5 6 7 7 7 8 9 10 11 12 13 14 15 16 16
15 16 19 20 20 19 20 17 14 12 12 12 12 11 11 11 10 10 9 10 9 8 8 7 6 5 4 4 5 5 6 7 8 8 8 9 10 10 12 13 14 15 15 16
15 17 18 19 19 18 17 15 13 12 11 10 10 10 11 10 9 9 9 9 9 8 7 7 6 5 4 4 5 5 6 7 7 8 8 9 10 10 12 13 14 14 15 16
15 16 17 17 17 18 16 15 14 12 11 9 10 10 11 9 9 9 9 9 9 8 7 6 5 5 4 5 5 6 6 7 8 8 8 9 9 10 12 13 13 14 15 15
14 15 16 17 17 17 16 15 13 12 11 10 9 10 11 9 8 8 8 8 9 8 7 6 5 5 5 5 6 6 7 7 7 7 8 9 10 10 11 12 13 14 14 15
13 14 15 16 17 16 16 16 14 13 11 11 10 8 8 8 8 7 7 8 8 8 7 6 5 5 5 5 5 6 7 7 7 7 8 9 10 11 12 12 13 14 14 15
11 13 15 15 16 17 17 15 13 12 11 10 10 10 8 7 7 7 7 7 7 7 6 5 5 5 5 5 5 6 7 7 7 8 8 9 10 11 11 12 13 14 14 15
8 10 13 15 16 18 17 13 10 9 9 10 10 11 9 8 8 7 7 7 7 6 6 5 5 5 5 5 6 6 7 7 7 8 9 9 10 11 12 13 13 14 14 15
9 9 11 12 13 16 16 15 12 11 10 9 9 9 8 8 8 8 8 8 7 6 6 6 6 6 6 6 7 7 7 7 8 9 9 10 11 11 12 13 13 14 14 15
10 8 10 11 13 15 15 13 11 9 8 7 8 9 8 7 7 8 8 8 8 7 7 7 6 6 6 7 7 8 8 8 9 10 10 11 11 12 13 13 13 14 14 15
12 10 8 9 11 13 14 14 12 9 8 9 9 9 8 7 7 8 7 7 7 7 7 7 7 7 7 8 8 8 8 8 9 10 11 11 12 12 13 14 14 14 15 15
13 12 9 8 8 10 12 13 14 12 10 9 9 9 9 8 8 8 7 7 7 7 7 7 7 7 8 8 8 8 9 9 10 11 11 12 12 13 14 14 14 15 15 15
13 12 9 8 8 9 10 11 12 12 11 10 11 11 10 9 9 8 7 7 7 7 7 7 7 7 8 8 8 9 9 10 11 11 12 13 13 14 14 15 15 16 16 16
13 12 10 9 9 9 10 11 12 12 12 11 12 11 10 10 9 9 8 7 7 7 7 7 8 8 8 9 9 9 10 11 12 13 13 14 14 15 15 16 16 17 17 17
13 12 11 9 9 10 10 11 12 12 13 13 11 10 11 11 11 10 9 9 9 9 8 9 9 10 10 10 11 12 12 13 14 15 15 15 16 16 17 17 18 18 19 19
13 13 12 10 10 11 11 10 11 12 13 14 12 11 12 12 12 12 11 10 10 10 11 11 11 11 11 12 12 13 14 15 16 16 17 17 17 18 19 20 20 20 21 21
14 14 13 12 12 13 11 11 12 12 13 14 13 13 13 13 13 13 13 12 12 12 12 13 13 13 13 14 15 16 17 17 18 18 18 19 19 20 21 21 22 23 23 23
15 16 16 15 15 14 14 13 14 14 15 15 15 14 14 14 15 14 14 14 14 14 14 15 15 16 16 17 18 18 19 19 19 20 20 21 22 22 23 23 24 25 25 26
17 17 18 17 17 17 15 15 15 16 16 15 15 16 16 16 16 15 15 16 16 17 17 17 18 19 19 20 20 21 21 21 22 23 23 24 25 25 26 26 26 27 28 28
19 19 19 19 19 19 17 16 17 18 17 17 17 17 17 18 17 17 18 18 19 19 20 20 20 21 21 22 23 23 24 24 25 26 27 27 28 28 29 29 29 30 30 31
20 20 20 21 21 22 19 20 20 19 19 19 19 19 19 19 20 20 20 21 21 22 22 23 23 23 24 25 25 26 26 27 28 29 29 30 31 32 33 33 33 34 35 35
23 23 23 24 24 22 21 22 22 22 22 22 21 22 22 22 23 23 23 24 24 24 25 25 26 26 27 27 28 29 30 30 31 32 32 33 34 35 36 37 37 38 39 40
26 25 25 25 25 25 24 24 24 24 24 24 24 24 24 25 25 25 26 26 27 27 28 28 29 29 30 30 31 32 33 33 34 35 36 37 37 39 40 41 41 42 42 43
26 26 27 28 27 27 27 27 27 26 26 26 27 27 27 27 28 28 29 29 30 30 31 31 31 32 33 34 34 35 36 37 38 39 39 40 41 42 43 43 44 45 45 46
29 29 30 30 30 29 29 29 29 29 29 29 29 29 30 30 30 31 32 32 33 33 34 34 35 36 36 37 38 38 39 40 41 42 43 44 45 45 46 47 47 48 49 49
Wind_Direction
187 189 190 191 192 193 199 202 205 208 211 216 221 225 230 228 234 239 235 235 235 241 243 242 237 241 247 257 276 295 302 307 312 316 322 328 332 335 339 342 345 347 348 348
180 182 183 187 188 193 197 198 196 198 207 212 215 224 229 226 228 237 236 237 236 238 236 229 229 237 242 257 276 294 302 305 309 314 320 325 330 334 337 341 343 346 347 348
171 177 178 181 185 190 193 189 187 196 202 206 213 221 231 227 230 232 236 234 232 227 223 215 219 229 243 262 279 292 303 310 315 315 318 324 328 334 338 340 342 345 348 349
167 174 176 179 181 184 185 183 184 189 186 196 208 215 225 226 226 224 228 224 215 216 213 210 217 225 244 265 281 295 305 311 317 317 321 325 327 333 338 339 341 344 346 347
165 169 172 174 177 179 180 179 176 176 182 195 207 212 216 218 219 217 219 221 215 205 203 208 220 234 250 266 283 295 303 308 314 318 324 328 329 332 335 337 340 342 344 346
160 167 171 173 174 173 170 169 166 172 183 199 215 215 209 212 210 212 216 213 206 199 203 213 226 238 251 265 281 294 302 305 310 316 322 327 329 333 335 337 339 341 343 345
159 166 168 167 167 168 165 163 168 179 189 190 192 207 206 197 208 214 215 211 208 204 206 215 228 243 256 269 282 294 299 301 305 313 319 324 329 332 334 337 339 341 343 344
156 161 165 166 164 159 160 166 177 184 185 177 185 209 208 201 213 217 216 212 211 210 214 224 236 250 262 272 282 292 300 301 304 310 316 322 326 329 332 334 336 338 341 343
152 163 166 166 163 161 163 173 175 170 173 178 188 209 216 216 217 215 214 214 218 218 221 235 246 258 265 274 283 292 298 301 304 307 313 319 323 327 328 331 333 335 338 341
148 161 165 170 173 171 173 173 171 174 178 186 199 218 217 216 220 219 219 222 221 227 234 240 251 263 272 280 287 291 296 302 303 305 309 314 318 322 323 326 328 329 333 337
145 159 169 177 181 180 182 178 168 166 168 185 206 222 219 222 226 229 230 228 229 232 236 241 252 263 275 284 290 293 297 302 306 308 310 312 315 317 318 320 322 325 329 333
157 157 165 177 181 185 186 180 176 177 180 198 218 232 229 231 229 227 225 224 228 231 237 245 256 267 277 285 290 293 297 300 306 311 312 313 314 316 317 317 318 320 324 328
166 159 164 175 183 187 192 190 188 183 184 202 220 233 236 238 230 223 220 224 229 235 243 250 262 272 278 285 290 293 297 299 304 309 314 313 311 312 313 314 316 318 320 323
172 165 171 188 196 200 199 200 198 190 190 208 226 234 231 234 227 224 225 230 237 244 251 255 266 275 280 284 289 294 296 298 303 307 310 310 309 309 310 311 313 315 317 318
183 182 190 207 214 216 215 211 208 205 201 209 224 231 231 230 228 230 235 240 246 252 258 264 273 279 282 286 290 293 296 299 302 304 306 307 306 307 307 308 310 312 313 314
196 194 199 213 222 223 226 219 217 217 218 222 230 231 234 234 232 236 242 247 252 258 264 270 275 277 281 285 290 294 296 298 300 303 304 304 304 305 305 305 305 306 308 309
209 205 206 217 227 231 234 229 226 223 224 229 233 234 236 240 239 242 246 251 256 260 264 268 273 278 283 287 291 295 296 297 299 300 301 302 303 304 305 304 305 305 306 306
216 213 215 217 226 232 232 236 237 235 233 236 239 239 240 246 245 246 249 253 256 259 264 268 272 277 283 287 289 292 295 295 296 298 300 301 302 303 304 304 304 304 304 304
225 224 222 221 230 238 239 239 241 241 240 241 243 245 246 249 253 252 252 256 260 263 267 272 275 279 283 286 289 291 293 294 295 296 296 297 299 300 301 302 303 302 302 302
233 232 232 230 232 241 243 242 243 244 245 245 246 247 251 253 256 258 259 261 264 267 271 274 277 280 283 286 288 290 292 292 293 293 293 294 295 297 298 299 301 301 300 300
238 237 237 236 237 242 244 244 244 247 248 249 251 252 254 256 259 261 262 265 268 269 272 274 277 279 281 284 287 289 291 292 292 292 292 293 294 295 296 298 299 299 299 299
241 241 240 238 240 244 245 247 247 249 251 253 255 257 258 260 262 263 265 267 269 271 273 275 277 279 282 284 286 288 289 291 291 291 291 292 293 294 295 296 297 298 298 298
239 241 242 242 244 248 249 249 249 251 254 257 259 260 261 262 263 265 266 268 270 272 274 275 277 279 281 284 286 287 289 290 291 291 291 292 293 294 295 295 296 296 297 297
242 243 246 248 248 249 251 251 253 255 257 259 261 262 263 264 266 267 268 270 272 274 275 276 278 279 281 283 285 286 288 289 290 291 291 292 292 293 294 295 296 296 297 296
245 246 248 249 249 251 252 253 255 257 259 260 262 263 265 266 267 268 270 272 273 275 276 277 279 281 282 284 285 287 288 289 290 291 291 292 292 293 293 295 295 296 296 297
247 247 248 250 250 251 253 255 257 258 260 261 263 264 265 267 269 270 272 273 274 276 277 278 280 282 283 284 286 287 288 289 290 291 291 292 293 293 293 294 295 295 296 296
Height
5780 5785 5789 5795 5800 5805 5809 5813 5816 5820 5824 5828 5830 5832 5835 5837 5839 5841 5842 5844 5846 5847 5848 5849 5850 5851 5852 5853 5854 5854 5855 5854 5854 5854 5853 5853 5852 5850 5849 5847 5845 5843 5840 5838
5781 5785 5790 5794 5799 5803 5807 5811 5815 5819 5822 5826 5829 5831 5833 5835 5838 5839 5841 5842 5844 5845 5847 5848 5849 5850 5851 5852 5853 5853 5853 5853 5853 5852 5852 5851 5850 5849 5848 5846 5844 5842 5840 5837
5782 5787 5790 5794 5799 5803 5807 5811 5815 5819 5822 5825 5828 5830 5832 5834 5836 5838 5840 5841 5842 5844 5845 5846 5848 5849 5850 5851 5851 5852 5852 5852 5851 5851 5851 5850 5849 5848 5847 5845 5843 5841 5839 5836
5784 5787 5791 5795 5799 5803 5807 5812 5816 5819 5821 5824 5827 5829 5831 5833 5835 5837 5838 5840 5841 5843 5844 5846 5847 5848 5849 5850 5850 5851 5851 5850 5850 5850 5849 5849 5848 5847 5846 5844 5842 5840 5838 5836
5786 5789 5793 5796 5800 5804 5808 5812 5816 5819 5821 5824 5826 5828 5830 5831 5833 5836 5837 5839 5840 5842 5843 5844 5846 5847 5848 5849 5849 5849 5849 5849 5849 5849 5848 5847 5847 5846 5844 5843 5841 5839 5837 5835
5789 5792 5795 5798 5801 5805 5809 5813 5816 5819 5821 5824 5826 5827 5829 5830 5833 5835 5836 5838 5839 5841 5842 5843 5845 5846 5847 5847 5848 5848 5848 5848 5847 5847 5847 5846 5845 5844 5843 5842 5840 5838 5837 5834
5791 5794 5796 5799 5803 5806 5810 5814 5817 5819 5821 5824 5825 5826 5828 5830 5832 5834 5835 5837 5838 5840 5841 5842 5844 5844 5845 5846 5846 5846 5847 5846 5846 5846 5845 5845 5844 5843 5842 5841 5839 5838 5836 5834
5794 5796 5798 5801 5804 5807 5811 5814 5818 5820 5821 5823 5825 5826 5828 5829 5832 5833 5834 5836 5837 5838 5840 5841 5842 5843 5844 5844 5845 5845 5845 5845 5845 5844 5844 5843 5842 5841 5840 5839 5838 5836 5835 5832
5796 5799 5801 5803 5805 5808 5811 5814 5816 5819 5821 5823 5825 5826 5827 5829 5831 5832 5833 5835 5836 5837 5839 5840 5841 5841 5842 5843 5843 5843 5844 5843 5843 5843 5842 5842 5841 5840 5839 5838 5836 5835 5833 5831
5798 5800 5802 5804 5807 5810 5812 5814 5817 5819 5821 5823 5824 5825 5827 5829 5830 5831 5832 5834 5835 5836 5837 5838 5839 5840 5841 5841 5842 5842 5842 5842 5841 5841 5840 5840 5839 5838 5837 5836 5835 5833 5832 5830
5799 5802 5804 5806 5808 5810 5813 5815 5816 5818 5821 5824 5824 5827 5826 5828 5829 5830 5831 5832 5834 5835 5836 5837 5838 5838 5839 5840 5840 5840 5840 5840 5839 5839 5838 5838 5837 5836 5835 5834 5833 5832 5830 5828
5800 5803 5805 5807 5809 5811 5813 5815 5817 5819 5822 5823 5824 5827 5825 5827 5828 5829 5830 5831 5832 5833 5834 5835 5836 5837 5837 5838 5838 5838 5838 5838 5837 5837 5836 5835 5835 5834 5833 5832 5831 5829 5828 5826
5801 5803 5806 5808 5811 5812 5813 5815 5816 5818 5820 5822 5823 5826 5824 5825 5827 5828 5829 5830 5831 5832 5833 5834 5835 5835 5835 5836 5836 5836 5836 5836 5835 5835 5834 5833 5833 5832 5831 5829 5828 5827 5825 5824
5802 5803 5806 5808 5809 5811 5813 5814 5816 5817 5819 5820 5821 5822 5823 5824 5825 5827 5828 5829 5829 5830 5831 5832 5833 5833 5833 5834 5834 5834 5833 5833 5833 5832 5831 5831 5830 5829 5828 5827 5825 5824 5823 5821
5802 5803 5805 5806 5808 5810 5812 5813 5815 5816 5817 5818 5819 5820 5821 5823 5824 5825 5826 5827 5828 5829 5829 5830 5830 5831 5831 5831 5831 5831 5831 5830 5830 5829 5829 5828 5827 5826 5825 5823 5822 5821 5819 5818
5801 5803 5804 5806 5807 5809 5810 5812 5813 5815 5816 5816 5817 5819 5819 5820 5822 5823 5824 5825 5826 5827 5827 5828 5828 5828 5828 5828 5828 5828 5827 5827 5827 5826 5825 5824 5823 5822 5821 5819 5818 5817 5815 5814
5799 5802 5803 5805 5806 5807 5809 5810 5811 5813 5814 5815 5816 5818 5817 5818 5820 5821 5822 5823 5824 5824 5825 5825 5825 5826 5825 5825 5825 5825 5824 5823 5823 5822 5821 5820 5819 5818 5816 5815 5814 5812 5811 5809
5797 5799 5801 5803 5805 5806 5809 5808 5809 5810 5811 5812 5813 5814 5815 5816 5817 5818 5819 5820 5821 5821 5822 5822 5822 5822 5822 5822 5821 5821 5820 5819 5818 5817 5816 5815 5814 5813 5811 5810 5808 5807 5805 5803
5794 5796 5797 5799 5801 5802 5804 5805 5806 5807 5808 5809 5810 5811 5812 5813 5813 5814 5816 5816 5817 5817 5818 5818 5818 5818 5817 5817 5816 5816 5815 5814 5813 5812 5811 5810 5808 5807 5805 5804 5802 5800 5799 5797
5790 5792 5794 5796 5797 5799 5801 5802 5802 5804 5804 5805 5806 5807 5808 5809 5810 5811 5811 5812 5813 5813 5813 5813 5813 5813 5812 5812 5811 5810 5810 5809 5807 5806 5805 5804 5802 5801 5799 5797 5795 5793 5792 5790
5786 5788 5789 5791 5793 5793 5795 5797 5799 5801 5801 5801 5802 5803 5804 5804 5806 5807 5806 5807 5807 5808 5808 5808 5808 5807 5806 5806 5805 5804 5803 5802 5801 5799 5798 5796 5795 5793 5791 5790 5788 5786 5784 5782
5781 5783 5785 5786 5787 5790 5791 5792 5793 5795 5795 5796 5797 5798 5799 5799 5800 5800 5801 5801 5801 5802 5802 5801 5801 5801 5800 5799 5798 5797 5796 5794 5793 5791 5789 5788 5786 5784 5782 5781 5778 5776 5774 5772
5776 5778 5779 5781 5783 5784 5785 5786 5787 5788 5789 5790 5792 5792 5793 5793 5794 5794 5795 5795 5795 5795 5795 5794 5794 5793 5792 5791 5790 5789 5787 5786 5784 5782 5780 5778 5776 5774 5772 5770 5768 5765 5763 5760
5770 5771 5773 5774 5775 5777 5779 5780 5781 5782 5783 5784 5785 5786 5786 5787 5787 5787 5787 5787 5787 5787 5787 5786 5785 5785 5784 5782 5781 5779 5778 5776 5774 5772 5770 5768 5766 5764 5761 5759 5756 5753 5750 5747
5763 5765 5766 5767 5769 5770 5771 5773 5774 5776 5777 5777 5778 5779 5779 5779 5780 5780 5779 5779 5779 5778 5778 5777 5776 5775 5774 5772 5771 5769 5767 5765 5763 5761 5758 5756 5754 5751 5749 5746 5743 5740 5737 5732
5756 5758 5759 5759 5761 5763 5765 5766 5767 5768 5769 5770 5770 5771 5771 5771 5771 5771 5770 5770 5769 5769 5768 5767 5766 5765 5763 5761 5760 5758 5756 5753 5751 5748 5746 5743 5740 5738 5735 5732 5730 5726 5722 5718